WA6MEM Weather Reports


time (UTC)temp
F
wind
direction
speed
knots
gust
knots
rain 1hr
in
rain 24hr
in
rain mn
in
humidity
%
barometer
mb
20260904232535 72 219 1.7 0.0 0.00 0.00 0.01 77 1010.9
20260904232035 72 159 1.7 0.0 0.00 0.00 0.01 76 1010.9
20260904231537 72 175 1.7 0.0 0.00 0.00 0.01 74 1010.9
20260904231033 72 144 1.7 0.0 0.00 0.00 0.01 74 1011.0
20260904230533 72 202 2.6 0.0 0.00 0.00 0.01 73 1011.0
20260904230057 72 179 2.6 0.0 0.00 0.00 0.01 73 1011.0
20260904225535 72 238 2.6 0.0 0.00 0.00 0.01 73 1011.0
20260904225033 72 198 2.6 0.0 0.00 0.00 0.01 73 1011.0
20260904224533 72 203 2.6 0.0 0.00 0.00 0.01 72 1011.0
20260904224034 72 189 2.6 0.0 0.00 0.00 0.01 73 1011.0
20260904223533 72 192 2.6 0.0 0.00 0.00 0.01 73 1011.0
20260904223032 72 159 1.7 0.0 0.00 0.00 0.01 72 1011.0
20260904222531 72 143 2.6 0.0 0.00 0.00 0.01 71 1011.1
20260904222031 72 181 1.7 0.0 0.00 0.00 0.01 66 1011.1
20260904221531 72 157 1.7 0.0 0.00 0.00 0.01 71 1011.1
20260904221031 72 208 2.6 0.0 0.00 0.00 0.01 71 1011.2
20260904220530 72 203 2.6 0.0 0.00 0.00 0.01 70 1011.2
20260904220030 72 174 2.6 0.0 0.00 0.00 0.01 71 1011.2
20260904215529 72 148 2.6 0.0 0.00 0.00 0.01 72 1011.4
20260904215028 72 205 2.6 0.0 0.00 0.00 0.01 74 1011.4
20260904214528 72 178 2.6 0.0 0.00 0.00 0.01 74 1011.4
20260904214026 72 187 2.6 0.0 0.00 0.00 0.01 75 1011.5
20260904213527 71 148 2.6 0.0 0.00 0.00 0.01 75 1011.5
20260904213027 71 161 2.6 0.0 0.00 0.00 0.01 75 1011.5
20260904212527 71 175 2.6 0.0 0.00 0.00 0.01 74 1011.5
20260904212026 71 198 2.6 0.0 0.00 0.00 0.01 75 1011.5
20260904211526 71 205 2.6 0.0 0.00 0.00 0.01 74 1011.5
20260904211027 71 163 1.7 0.0 0.00 0.00 0.01 73 1011.5
20260904210525 71 202 2.6 0.0 0.00 0.00 0.01 74 1011.5
20260904210024 71 212 2.6 0.0 0.00 0.00 0.01 74 1011.5
20260904205523 71 168 2.6 0.0 0.00 0.00 0.01 77 1011.5
20260904205023 71 213 2.6 0.0 0.00 0.00 0.01 76 1011.5
20260904204523 71 198 2.6 0.0 0.00 0.00 0.01 77 1011.5
20260904204020 70 165 2.6 0.0 0.00 0.00 0.01 77 1011.5
20260904203520 70 144 2.6 0.0 0.00 0.00 0.01 77 1011.5
20260904203020 70 161 2.6 0.0 0.00 0.00 0.01 78 1011.5
20260904202519 70 185 2.6 0.0 0.00 0.00 0.01 77 1011.8
20260904202019 70 184 3.5 0.0 0.00 0.00 0.01 78 1011.8
20260904201519 70 213 2.6 0.0 0.00 0.00 0.01 77 1011.8
20260904201018 70 196 2.6 0.0 0.00 0.00 0.01 79 1011.9
20260904200518 70 165 2.6 0.0 0.00 0.00 0.01 80 1011.9
20260904200018 70 171 2.6 0.0 0.00 0.00 0.01 79 1011.9
20260904195518 70 167 2.6 0.0 0.00 0.00 0.01 79 1012.0
20260904195017 70 215 2.6 0.0 0.00 0.00 0.01 78 1012.0
20260904194518 70 159 2.6 0.0 0.00 0.00 0.01 78 1012.0
20260904194017 70 176 2.6 0.0 0.00 0.00 0.01 78 1012.0
20260904193517 70 163 2.6 0.0 0.00 0.00 0.01 78 1012.0
20260904193033 70 139 2.6 0.0 0.00 0.00 0.01 79 1012.0
20260904192516 69 109 2.6 0.0 0.00 0.00 0.01 78 1012.1
20260904192016 70 189 2.6 0.0 0.00 0.00 0.01 78 1012.1
20260904191519 70 169 2.6 0.0 0.00 0.00 0.01 78 1012.1
20260904191016 70 161 2.6 0.0 0.00 0.00 0.01 77 1012.5
20260904190516 70 192 2.6 0.0 0.00 0.00 0.01 78 1012.5
20260904190032 70 134 2.6 0.0 0.00 0.00 0.01 79 1012.5
20260904185514 69 182 2.6 0.0 0.00 0.00 0.01 79 1012.7
20260904185018 69 205 2.6 0.0 0.00 0.00 0.01 80 1012.7
20260904184514 69 229 2.6 0.0 0.00 0.00 0.01 79 1012.7
20260904184013 69 211 2.6 0.0 0.00 0.00 0.01 80 1012.7
20260904183513 69 210 3.5 0.0 0.00 0.00 0.01 79 1012.7
20260904183013 69 195 2.6 0.0 0.00 0.00 0.01 79 1012.7
20260904182512 70 111 2.6 0.0 0.00 0.00 0.01 80 1012.6
20260904182012 70 162 2.6 0.0 0.00 0.00 0.01 79 1012.6
20260904181512 70 104 2.6 0.0 0.00 0.00 0.01 79 1012.6
20260904181012 70 142 1.7 0.0 0.00 0.00 0.01 80 1012.6
20260904180513 70 197 1.7 0.0 0.00 0.00 0.01 81 1012.6
20260904180010 69 175 1.7 0.0 0.00 0.00 0.01 81 1012.6
20260904175510 69 181 1.7 0.0 0.00 0.00 0.01 81 1012.6
20260904175011 69 163 1.7 0.0 0.00 0.00 0.01 83 1012.6
20260904174508 68 132 2.6 0.0 0.00 0.00 0.01 84 1012.6
20260904174007 68 171 2.6 0.0 0.00 0.00 0.01 83 1012.6
20260904173505 68 277 1.7 0.0 0.00 0.00 0.01 83 1012.6
20260904173005 67 181 1.7 0.0 0.00 0.00 0.01 82 1012.6
20260904172505 67 178 1.7 0.0 0.00 0.00 0.01 82 1012.5
20260904172005 67 218 1.7 0.0 0.00 0.00 0.01 85 1012.5
20260904171502 67 217 0.9 0.0 0.00 0.00 0.01 86 1012.5
20260904171002 66 134 0.9 0.0 0.00 0.00 0.01 86 1012.5
20260904170502 66 153 1.7 0.0 0.00 0.00 0.01 86 1012.5
20260904170001 66 117 1.7 0.0 0.00 0.00 0.01 85 1012.5
20260904165600 66 125 1.7 0.0 0.00 0.00 0.01 87 1012.2
20260904165100 66 175 1.7 0.0 0.00 0.00 0.01 87 1012.2
20260904164604 65 195 1.7 0.0 0.00 0.00 0.01 87 1012.2
20260904164057 65 84 1.7 0.0 0.00 0.00 0.01 86 1012.1
20260904163557 65 188 1.7 0.0 0.00 0.00 0.01 87 1012.1
20260904163106 65 70 0.9 0.0 0.00 0.00 0.01 88 1012.1
20260904162556 65 33 0.9 0.0 0.00 0.00 0.01 88 1012.1
20260904162055 65 111 1.7 0.0 0.00 0.00 0.01 87 1012.1
20260904161555 65 134 2.6 0.0 0.00 0.00 0.01 88 1012.1
20260904161055 65 69 1.7 0.0 0.00 0.00 0.01 89 1011.8
20260904160553 64 109 1.7 0.0 0.00 0.00 0.01 90 1011.8
20260904160104 64 94 1.7 0.0 0.00 0.00 0.01 92 1011.8
20260904155551 64 101 0.9 0.0 0.00 0.00 0.01 93 1011.8
20260904155051 63 87 0.9 0.0 0.00 0.00 0.01 94 1011.8
20260904154549 63 144 0.0 0.0 0.00 0.00 0.01 96 1011.8
20260904154048 62 88 0.0 0.0 0.00 0.00 0.01 96 1011.9
20260904153547 62 107 0.9 0.0 0.00 0.00 0.01 96 1011.9
20260904153101 61 148 1.7 0.0 0.00 0.00 0.01 95 1011.9
20260904152547 61 142 0.9 0.0 0.00 0.00 0.01 95 1011.8
20260904152046 62 104 0.0 0.0 0.00 0.00 0.01 95 1011.8
20260904151546 62 115 0.0 0.0 0.00 0.00 0.01 96 1011.8
20260904151046 62 136 0.0 0.0 0.00 0.00 0.01 96 1011.8
20260904150550 61 112 0.0 0.0 0.00 0.00 0.01 96 1011.8
20260904150100 61 83 0.0 0.0 0.00 0.00 0.01 96 1011.8
20260904145546 61 85 0.0 0.0 0.00 0.00 0.01 96 1011.7
20260904145048 61 62 0.0 0.0 0.00 0.00 0.01 96 1011.7
20260904144547 62 80 0.0 0.0 0.00 0.00 0.01 96 1011.7
20260904144044 62 153 0.0 0.0 0.00 0.00 0.01 96 1011.4
20260904143544 62 153 0.0 0.0 0.00 0.00 0.01 97 1011.4
20260904143043 62 153 0.0 0.0 0.00 0.00 0.01 97 1011.4
20260904142542 62 153 0.0 0.0 0.00 0.00 0.01 97 1011.2
20260904142041 61 153 0.0 0.0 0.00 0.00 0.01 97 1011.2
20260904141540 61 207 0.0 0.0 0.00 0.00 0.01 97 1011.2
20260904141039 61 207 0.0 0.0 0.00 0.00 0.01 97 1011.2
20260904140542 60 207 0.0 0.0 0.00 0.00 0.01 97 1011.2
20260904140038 60 207 0.0 0.0 0.00 0.00 0.01 96 1011.2
20260904135539 60 207 0.0 0.0 0.00 0.00 0.01 96 1011.1
20260904135038 60 207 0.0 0.0 0.00 0.00 0.01 96 1011.1
20260904134546 60 207 0.0 0.0 0.00 0.00 0.01 97 1011.1
20260904134037 60 207 0.0 0.0 0.00 0.00 0.00 96 1011.0
20260904133537 60 207 0.0 0.0 0.00 0.00 0.00 97 1011.0
20260904133037 60 207 0.0 0.0 0.00 0.00 0.00 97 1011.0
20260904132537 60 207 0.0 0.0 0.00 0.00 0.00 97 1011.0
20260904132039 60 207 0.0 0.0 0.00 0.00 0.00 97 1011.0
20260904131535 60 207 0.0 0.0 0.00 0.00 0.00 97 1011.0
20260904131036 60 207 0.0 0.0 0.00 0.00 0.00 97 1010.8
20260904130538 60 207 0.0 0.0 0.00 0.00 0.00 97 1010.8
20260904130051 60 207 0.0 0.0 0.00 0.00 0.00 96 1010.8
20260904125535 60 207 0.0 0.0 0.00 0.00 0.00 97 1010.6
20260904125036 60 207 0.0 0.0 0.00 0.00 0.00 97 1010.6
20260904124538 60 207 0.0 0.0 0.00 0.00 0.00 97 1010.6
20260904124040 60 207 0.0 0.0 0.00 0.00 0.00 97 1010.6
20260904123536 59 270 0.0 0.0 0.00 0.00 0.00 96 1010.6
20260904123033 59 270 0.0 0.0 0.00 0.00 0.00 96 1010.6
20260904122533 59 270 0.0 0.0 0.00 0.00 0.00 96 1010.6
20260904122033 59 270 0.0 0.0 0.00 0.00 0.00 96 1010.6
20260904121535 59 270 0.0 0.0 0.00 0.00 0.00 96 1010.6
20260904121036 59 270 0.0 0.0 0.00 0.00 0.00 96 1010.5
20260904120532 59 270 0.0 0.0 0.00 0.00 0.00 96 1010.5
20260904120037 59 270 0.0 0.0 0.00 0.00 0.00 96 1010.5
20260904115532 59 270 0.0 0.0 0.00 0.00 0.00 96 1010.5
20260904115032 59 270 0.0 0.0 0.00 0.00 0.00 96 1010.5
20260904114532 59 270 0.0 0.0 0.00 0.00 0.00 96 1010.5
20260904114031 59 270 0.0 0.0 0.00 0.00 0.00 96 1010.5
20260904113531 59 270 0.0 0.0 0.00 0.00 0.00 96 1010.5
20260904113034 59 270 0.0 0.0 0.00 0.00 0.00 96 1010.5
20260904112531 59 270 0.0 0.0 0.00 0.00 0.00 96 1010.5
20260904112029 59 270 0.0 0.0 0.00 0.00 0.00 96 1010.5
20260904111529 59 270 0.0 0.0 0.00 0.00 0.00 96 1010.5
20260904111032 59 270 0.0 0.0 0.00 0.00 0.00 96 1010.5
20260904110530 59 270 0.0 0.0 0.00 0.00 0.00 96 1010.5
20260904110029 59 270 0.0 0.0 0.00 0.00 0.00 96 1010.5
20260904105529 59 270 0.0 0.0 0.00 0.00 0.00 96 1010.6
20260904105029 59 270 0.0 0.0 0.00 0.00 0.00 96 1010.6
20260904104530 59 270 0.0 0.0 0.00 0.00 0.00 96 1010.6
20260904104028 58 270 0.0 0.0 0.00 0.00 0.00 96 1010.5
20260904103527 58 270 0.0 0.0 0.00 0.00 0.00 95 1010.5
20260904103028 58 270 0.0 0.0 0.00 0.00 0.00 96 1010.5
20260904102529 58 270 0.0 0.0 0.00 0.00 0.00 96 1010.5
20260904102028 58 270 0.0 0.0 0.00 0.00 0.00 95 1010.5
20260904101530 58 270 0.0 0.0 0.00 0.00 0.00 95 1010.5
20260904101028 58 270 0.0 0.0 0.00 0.00 0.00 95 1010.5
20260904100530 58 270 0.0 0.0 0.00 0.00 0.00 95 1010.5
20260904100030 58 270 0.0 0.0 0.00 0.00 0.00 95 1010.5
20260904095531 58 270 0.0 0.0 0.00 0.00 0.00 95 1010.5
20260904095026 58 270 0.0 0.0 0.00 0.00 0.00 95 1010.5
20260904094525 59 270 0.0 0.0 0.00 0.00 0.00 95 1010.5
20260904094025 59 270 0.0 0.0 0.00 0.00 0.00 95 1010.6
20260904093525 59 270 0.0 0.0 0.00 0.00 0.00 95 1010.6
20260904093026 59 270 0.0 0.0 0.00 0.00 0.00 95 1010.6
20260904092524 59 270 0.0 0.0 0.00 0.00 0.00 95 1010.6
20260904092026 59 270 0.0 0.0 0.00 0.00 0.00 95 1010.6
20260904091525 58 270 0.0 0.0 0.00 0.00 0.00 95 1010.6
20260904091025 58 270 0.0 0.0 0.00 0.00 0.00 95 1010.6
20260904090524 59 270 0.0 0.0 0.00 0.00 0.00 95 1010.6
20260904090031 59 270 0.0 0.0 0.00 0.00 0.00 94 1010.6
20260904085524 59 270 0.0 0.0 0.00 0.00 0.00 94 1010.5
20260904085025 59 270 0.0 0.0 0.00 0.00 0.00 95 1010.5
20260904084523 59 270 0.0 0.0 0.00 0.00 0.00 95 1010.5
20260904084022 59 270 0.0 0.0 0.00 0.00 0.00 95 1010.6
20260904083522 59 270 0.0 0.0 0.00 0.00 0.00 94 1010.6
20260904083029 60 270 0.0 0.0 0.00 0.00 0.00 95 1010.6
20260904082523 60 270 0.0 0.0 0.00 0.00 0.00 95 1010.6
20260904082021 60 270 0.0 0.0 0.00 0.00 0.00 95 1010.6
20260904081521 60 270 0.0 0.0 0.00 0.00 0.00 95 1010.6
20260904081021 60 270 0.0 0.0 0.00 0.00 0.00 95 1010.7
20260904080521 60 270 0.0 0.0 0.00 0.00 0.00 95 1010.7
20260904080021 60 270 0.0 0.0 0.00 0.00 0.00 95 1010.7
20260904075520 60 270 0.0 0.0 0.00 0.00 0.00 95 1010.7
20260904075019 60 270 0.0 0.0 0.00 0.00 0.00 95 1010.7
20260904074518 60 270 0.0 0.0 0.00 0.00 0.00 94 1010.7
20260904074018 60 270 0.0 0.0 0.00 0.00 0.00 94 1010.7
20260904073519 60 270 0.0 0.0 0.00 0.00 0.00 94 1010.7
20260904073018 59 270 0.0 0.0 0.00 0.00 0.00 94 1010.7
20260904072517 59 270 0.0 0.0 0.00 0.00 0.00 94 1010.8
20260904072016 59 270 0.0 0.0 0.00 0.00 0.00 94 1010.8
20260904071520 59 270 0.0 0.0 0.00 0.00 0.00 94 1010.8
20260904071018 59 270 0.0 0.0 0.00 0.00 0.00 93 1010.6
20260904070514 59 270 0.0 0.0 0.00 0.00 0.00 93 1010.6
20260904070018 59 270 0.0 0.0 0.00 0.00 0.01 93 1010.6
20260904065514 59 270 0.0 0.0 0.00 0.00 0.01 93 1010.6
20260904065014 59 270 0.0 0.0 0.00 0.00 0.01 93 1010.6
20260904064514 59 270 0.0 0.0 0.00 0.00 0.01 93 1010.6
20260904064013 59 270 0.0 0.0 0.00 0.00 0.01 93 1010.6
20260904063512 59 270 0.0 0.0 0.00 0.00 0.01 93 1010.6
20260904063012 59 270 0.0 0.0 0.00 0.00 0.01 93 1010.6
20260904062511 59 270 0.0 0.0 0.00 0.00 0.01 93 1010.4
20260904062015 60 270 0.0 0.0 0.00 0.00 0.01 93 1010.4
20260904061524 60 270 0.0 0.0 0.00 0.00 0.01 93 1010.4
20260904061011 60 270 0.0 0.0 0.00 0.00 0.01 94 1010.5
20260904060510 60 270 0.0 0.0 0.00 0.00 0.01 94 1010.5
20260904060010 61 270 0.0 0.0 0.00 0.00 0.01 95 1010.5
20260904055509 61 270 0.0 0.0 0.00 0.00 0.01 95 1010.5
20260904055009 61 270 0.0 0.0 0.00 0.00 0.01 94 1010.5
20260904054518 61 270 0.0 0.0 0.00 0.00 0.01 94 1010.5
20260904054008 61 270 0.0 0.0 0.00 0.00 0.01 94 1010.4
20260904053508 61 270 0.0 0.0 0.00 0.00 0.01 94 1010.4
20260904053008 61 270 0.0 0.0 0.00 0.00 0.01 94 1010.4
20260904052508 61 270 0.9 0.0 0.00 0.00 0.01 94 1010.4
20260904052009 61 270 0.9 0.0 0.00 0.00 0.01 94 1010.4
20260904051508 61 237 0.9 0.0 0.00 0.00 0.01 94 1010.4
20260904051010 61 237 0.9 0.0 0.00 0.00 0.01 94 1010.7
20260904050507 61 251 0.0 0.0 0.00 0.00 0.01 94 1010.7
20260904050010 61 251 0.0 0.0 0.00 0.00 0.01 94 1010.7
20260904045507 61 251 0.9 0.0 0.00 0.00 0.01 94 1010.6
20260904045011 61 144 0.9 0.0 0.00 0.00 0.01 94 1010.6
20260904044508 62 211 0.9 0.0 0.00 0.00 0.01 94 1010.6
20260904044008 62 200 0.9 0.0 0.00 0.00 0.01 94 1010.5
20260904043506 62 217 0.9 0.0 0.00 0.00 0.01 94 1010.5
20260904043006 62 213 0.9 0.0 0.00 0.00 0.01 94 1010.5
20260904042506 62 229 0.9 0.0 0.00 0.00 0.01 93 1010.5
20260904042007 62 284 0.9 0.0 0.00 0.00 0.01 93 1010.5
20260904041506 62 221 1.7 0.0 0.00 0.00 0.01 93 1010.5
20260904041007 62 284 1.7 0.0 0.00 0.00 0.01 93 1010.6
20260904040507 62 276 1.7 0.0 0.00 0.00 0.01 93 1010.6
20260904040007 62 281 1.7 0.0 0.00 0.00 0.01 93 1010.6
20260904035506 62 325 1.7 0.0 0.00 0.00 0.01 93 1010.5
20260904035005 62 227 1.7 0.0 0.00 0.00 0.01 93 1010.5
20260904034505 62 275 1.7 0.0 0.00 0.00 0.01 93 1010.5
20260904034005 62 263 2.6 0.0 0.00 0.00 0.01 93 1010.2
20260904033505 62 267 1.7 0.0 0.00 0.00 0.01 93 1010.2
20260904033005 62 284 0.9 0.0 0.00 0.00 0.01 93 1010.2
20260904032504 62 166 0.9 0.0 0.00 0.00 0.01 93 1010.1
20260904032004 62 264 0.9 0.0 0.00 0.00 0.01 93 1010.1
20260904031504 62 275 0.9 0.0 0.00 0.00 0.01 93 1010.1
20260904031004 62 259 0.9 0.0 0.00 0.00 0.01 92 1010.1
20260904030504 62 202 1.7 0.0 0.00 0.00 0.01 92 1010.1
20260904030012 63 216 1.7 0.0 0.00 0.00 0.01 92 1010.1
20260904025504 63 154 1.7 0.0 0.00 0.00 0.01 92 1010.0
20260904025004 63 200 0.9 0.0 0.00 0.00 0.01 92 1010.0
20260904024504 63 175 1.7 0.0 0.00 0.00 0.01 92 1010.0
20260904024004 63 185 1.7 0.0 0.00 0.00 0.01 91 1010.0
20260904023504 63 182 1.7 0.0 0.00 0.00 0.01 91 1010.0
20260904023003 63 196 1.7 0.0 0.00 0.00 0.01 91 1010.0
20260904022503 63 171 1.7 0.0 0.00 0.00 0.01 90 1010.0
20260904022004 63 180 1.7 0.0 0.00 0.00 0.01 90 1010.0
20260904021507 64 185 1.7 0.0 0.00 0.00 0.01 89 1010.0
20260904021003 64 161 1.7 0.0 0.00 0.00 0.01 88 1010.1
20260904020506 64 206 0.9 0.0 0.00 0.00 0.01 87 1010.1
20260904020003 64 360 1.7 0.0 0.00 0.00 0.01 87 1010.1
20260904015506 64 182 2.6 0.0 0.00 0.00 0.01 85 1010.2
20260904015002 64 215 1.7 0.0 0.00 0.00 0.01 85 1010.2
20260904014505 65 202 1.7 0.0 0.00 0.00 0.01 85 1010.2
20260904014002 65 197 1.7 0.0 0.00 0.00 0.01 85 1010.1
20260904013501 65 157 2.6 0.0 0.00 0.00 0.01 84 1010.1
20260904013002 65 212 2.6 0.0 0.00 0.00 0.01 83 1010.1
20260904012502 66 227 2.6 0.0 0.00 0.00 0.01 82 1010.1
20260904012002 66 202 2.6 0.0 0.00 0.00 0.01 82 1010.1
20260904011503 67 192 2.6 0.0 0.00 0.00 0.01 82 1010.1
20260904011001 67 163 2.6 0.0 0.00 0.00 0.01 81 1010.0
20260904010503 67 241 2.6 0.0 0.00 0.00 0.01 80 1010.0
20260904010001 68 200 2.6 0.0 0.00 0.00 0.01 80 1010.0
20260904005601 68 205 2.6 0.0 0.00 0.00 0.01 79 1010.1
20260904005100 68 205 2.6 0.0 0.00 0.00 0.01 78 1010.1
20260904004600 68 228 2.6 0.0 0.00 0.00 0.01 79 1010.1
20260904004100 68 360 2.6 0.0 0.00 0.00 0.01 77 1010.2
20260904003559 68 229 3.5 0.0 0.00 0.00 0.01 79 1010.2
20260904003059 68 223 3.5 0.0 0.00 0.00 0.01 78 1010.2
20260904002559 68 233 3.5 0.0 0.00 0.00 0.01 79 1010.3
20260904002059 68 360 4.3 0.0 0.00 0.00 0.01 79 1010.3
20260904001559 68 177 4.3 0.0 0.00 0.00 0.01 79 1010.3
20260904001058 69 203 3.5 0.0 0.00 0.00 0.01 79 1010.3
20260904000601 69 222 3.5 0.0 0.00 0.00 0.01 79 1010.3
20260904000058 69 185 2.6 0.0 0.00 0.00 0.01 79 1010.3
20260903235558 69 142 2.6 0.0 0.00 0.00 0.01 79 1010.4
20260903235057 69 199 3.5 0.0 0.00 0.00 0.01 79 1010.4
20260903234558 70 217 3.5 0.0 0.00 0.00 0.01 79 1010.4
20260903234057 70 216 3.5 0.0 0.00 0.00 0.01 79 1010.4
20260903233556 70 155 2.6 0.0 0.00 0.00 0.01 80 1010.4
20260903233056 69 217 2.6 0.0 0.00 0.00 0.01 81 1010.4